• In Portugal
  • List of Countries
  • For 7 days
  • Water Temperature
  • Satellite Maps
  • Weather Map
  • Weather Widgets
  • user-avatar
    Login

    Hourly Weather Dhalkuta

    Today, 19 February, Monday

    Time Temperature Precipitation Wind Pressure Humidity
    00:00 +20°C° 0 mm 1 mps 752 mmHg 64%
    01:00 +20°C° 0 mm 1 mps 752 mmHg 65%
    02:00 +20°C° 0 mm 1 mps 752 mmHg 66%
    03:00 +19°C° 0 mm 1 mps 752 mmHg 68%
    04:00 +19°C° 0 mm 1 mps 752 mmHg 69%
    05:00 +19°C° 0 mm 1 mps 752 mmHg 70%
    06:00 +18°C° 0 mm 1 mps 752 mmHg 71%
    07:00 +20°C° 0 mm 1 mps 752 mmHg 65%
    08:00 +22°C° 0 mm 1 mps 753 mmHg 59%
    09:00 +23°C° 0 mm 2 mps 753 mmHg 52%
    10:00 +25°C° 0 mm 2 mps 753 mmHg 47%
    11:00 +27°C° 0 mm 2 mps 753 mmHg 41%
    12:00 +29°C° 0 mm 2 mps 753 mmHg 36%
    13:00 +29°C° 0 mm 3 mps 752 mmHg 33%
    14:00 +30°C° 0 mm 3 mps 751 mmHg 31%
    15:00 +32°C° 0 mm 4 mps 751 mmHg 28%
    16:00 +29°C° 0 mm 3 mps 751 mmHg 32%
    17:00 +27°C° 0 mm 3 mps 751 mmHg 35%
    18:00 +26°C° 0 mm 2 mps 751 mmHg 39%
    19:00 +25°C° 0 mm 2 mps 752 mmHg 42%
    20:00 +23°C° 0 mm 2 mps 752 mmHg 45%
    21:00 +21°C° 0 mm 2 mps 753 mmHg 49%
    22:00 +21°C° 0 mm 2 mps 753 mmHg 51%
    23:00 +20°C° 0 mm 2 mps 753 mmHg 53%

    Tomorrow, 20 February, Tuesday

    Time Temperature Precipitation Wind Pressure Humidity
    00:00 +20°C° 0 mm 2 mps 753 mmHg 55%
    01:00 +19°C° 0 mm 2 mps 753 mmHg 56%
    02:00 +19°C° 0 mm 2 mps 752 mmHg 57%
    03:00 +18°C° 0 mm 2 mps 752 mmHg 58%
    04:00 +18°C° 0 mm 2 mps 752 mmHg 58%
    05:00 +18°C° 0 mm 2 mps 752 mmHg 58%
    06:00 +19°C° 0 mm 1 mps 752 mmHg 58%
    07:00 +19°C° 0 mm 2 mps 753 mmHg 53%
    08:00 +21°C° 0 mm 2 mps 753 mmHg 48%
    09:00 +24°C° 0 mm 2 mps 754 mmHg 43%
    10:00 +26°C° 0 mm 2 mps 753 mmHg 39%
    11:00 +27°C° 0 mm 3 mps 753 mmHg 35%
    12:00 +29°C° 0 mm 3 mps 753 mmHg 31%
    13:00 +29°C° 0 mm 2 mps 752 mmHg 29%
    14:00 +30°C° 0 mm 2 mps 751 mmHg 27%
    15:00 +31°C° 0 mm 2 mps 750 mmHg 25%
    16:00 +29°C° 0 mm 2 mps 751 mmHg 28%
    17:00 +28°C° 0 mm 2 mps 751 mmHg 32%
    18:00 +26°C° 0 mm 2 mps 751 mmHg 35%
    19:00 +25°C° 0 mm 2 mps 751 mmHg 37%
    20:00 +24°C° 0 mm 2 mps 752 mmHg 39%
    21:00 +23°C° 0 mm 2 mps 752 mmHg 42%
    22:00 +21°C° 0 mm 2 mps 752 mmHg 43%
    23:00 +21°C° 0 mm 2 mps 752 mmHg 44%

    Day after tomorrow, 21 February, Wednesday

    Time Temperature Precipitation Wind Pressure Humidity
    00:00 +20°C° 0 mm 2 mps 752 mmHg 46%
    01:00 +20°C° 0 mm 2 mps 751 mmHg 47%
    02:00 +19°C° 0 mm 2 mps 751 mmHg 47%
    03:00 +19°C° 0 mm 2 mps 751 mmHg 48%
    04:00 +20°C° 0 mm 1 mps 751 mmHg 49%
    05:00 +19°C° 0 mm 1 mps 751 mmHg 49%
    06:00 +19°C° 0 mm 1 mps 751 mmHg 49%
    07:00 +21°C° 0 mm 1 mps 751 mmHg 45%
    08:00 +23°C° 0 mm 1 mps 752 mmHg 41%
    09:00 +25°C° 0 mm 1 mps 753 mmHg 37%
    10:00 +26°C° 0 mm 1 mps 752 mmHg 34%
    11:00 +28°C° 0 mm 1 mps 752 mmHg 32%
    12:00 +30°C° 0 mm 2 mps 752 mmHg 30%
    13:00 +30°C° 0 mm 2 mps 751 mmHg 28%
    14:00 +30°C° 0 mm 2 mps 750 mmHg 27%
    15:00 +31°C° 0 mm 2 mps 749 mmHg 25%
    16:00 +29°C° 0 mm 2 mps 750 mmHg 28%
    17:00 +28°C° 0 mm 2 mps 750 mmHg 31%
    18:00 +26°C° 0 mm 2 mps 750 mmHg 34%
    19:00 +25°C° 0 mm 2 mps 750 mmHg 36%
    20:00 +24°C° 0 mm 2 mps 751 mmHg 39%
    21:00 +23°C° 0 mm 2 mps 752 mmHg 41%
    22:00 +21°C° 0 mm 2 mps 752 mmHg 43%
    23:00 +21°C° 0 mm 2 mps 752 mmHg 45%

    22 February, Thursday

    Time Temperature Precipitation Wind Pressure Humidity
    00:00 +20°C° 0 mm 2 mps 751 mmHg 47%
    01:00 +20°C° 0 mm 2 mps 751 mmHg 48%
    02:00 +21°C° 0 mm 1 mps 751 mmHg 49%
    03:00 +20°C° 0 mm 1 mps 750 mmHg 51%
    04:00 +20°C° 0 mm 1 mps 750 mmHg 51%
    05:00 +20°C° 0 mm 1 mps 751 mmHg 51%
    06:00 +20°C° 0 mm 1 mps 751 mmHg 52%
    07:00 +21°C° 0 mm 1 mps 751 mmHg 47%
    08:00 +23°C° 0 mm 2 mps 752 mmHg 42%
    09:00 +25°C° 0 mm 2 mps 752 mmHg 38%
    10:00 +27°C° 0 mm 2 mps 752 mmHg 35%
    11:00 +28°C° 0 mm 2 mps 752 mmHg 32%
    12:00 +30°C° 0 mm 3 mps 752 mmHg 30%
    13:00 +31°C° 0 mm 2 mps 751 mmHg 29%
    14:00 +31°C° 0 mm 2 mps 750 mmHg 28%
    15:00 +32°C° 0 mm 2 mps 749 mmHg 27%
    16:00 +30°C° 0 mm 2 mps 749 mmHg 30%
    17:00 +29°C° 0 mm 2 mps 750 mmHg 33%
    18:00 +27°C° 0 mm 2 mps 750 mmHg 37%
    19:00 +26°C° 0 mm 2 mps 750 mmHg 39%
    20:00 +25°C° 0 mm 2 mps 751 mmHg 42%
    21:00 +23°C° 0 mm 2 mps 752 mmHg 44%
    22:00 +23°C° 0 mm 2 mps 752 mmHg 45%
    23:00 +21°C° 0 mm 2 mps 752 mmHg 46%

    23 February, Friday

    Time Temperature Precipitation Wind Pressure Humidity
    00:00 +21°C° 0 mm 2 mps 752 mmHg 47%
    01:00 +20°C° 0 mm 2 mps 752 mmHg 47%
    02:00 +20°C° 0 mm 2 mps 751 mmHg 47%
    03:00 +20°C° 0 mm 2 mps 751 mmHg 47%
    04:00 +19°C° 0 mm 2 mps 751 mmHg 47%
    05:00 +19°C° 0 mm 2 mps 751 mmHg 47%
    06:00 +19°C° 0 mm 2 mps 751 mmHg 46%
    07:00 +21°C° 0 mm 2 mps 752 mmHg 42%
    08:00 +24°C° 0 mm 2 mps 752 mmHg 38%
    09:00 +26°C° 0 mm 2 mps 753 mmHg 34%
    10:00 +27°C° 0 mm 2 mps 753 mmHg 33%
    11:00 +29°C° 0 mm 2 mps 752 mmHg 31%
    12:00 +30°C° 0 mm 2 mps 752 mmHg 30%
    13:00 +31°C° 0 mm 2 mps 751 mmHg 29%
    14:00 +31°C° 0 mm 2 mps 751 mmHg 28%
    15:00 +32°C° 0 mm 2 mps 750 mmHg 27%
    16:00 +30°C° 0 mm 2 mps 750 mmHg 31%
    17:00 +29°C° 0 mm 2 mps 750 mmHg 34%
    18:00 +28°C° 0 mm 2 mps 751 mmHg 37%
    19:00 +27°C° 0 mm 2 mps 751 mmHg 39%
    20:00 +25°C° 0 mm 2 mps 752 mmHg 42%
    21:00 +24°C° 0 mm 2 mps 752 mmHg 44%
    22:00 +24°C° 0 mm 2 mps 753 mmHg 46%
    23:00 +23°C° 0 mm 2 mps 753 mmHg 47%

    24 February, Saturday

    Time Temperature Precipitation Wind Pressure Humidity
    00:00 +23°C° 0 mm 2 mps 753 mmHg 48%
    01:00 +21°C° 0 mm 2 mps 752 mmHg 49%
    02:00 +21°C° 0 mm 2 mps 752 mmHg 49%
    03:00 +21°C° 0 mm 2 mps 752 mmHg 50%
    04:00 +20°C° 0 mm 2 mps 752 mmHg 50%
    05:00 +20°C° 0 mm 2 mps 753 mmHg 50%
    06:00 +20°C° 0 mm 2 mps 753 mmHg 50%
    07:00 +23°C° 0 mm 2 mps 753 mmHg 46%
    08:00 +25°C° 0 mm 2 mps 754 mmHg 41%
    09:00 +27°C° 0 mm 2 mps 754 mmHg 37%
    10:00 +28°C° 0 mm 3 mps 754 mmHg 35%
    11:00 +30°C° 0 mm 3 mps 754 mmHg 32%
    12:00 +31°C° 0 mm 3 mps 754 mmHg 30%
    13:00 +33°C° 0 mm 3 mps 753 mmHg 29%
    14:00 +32°C° 0 mm 2 mps 752 mmHg 28%
    15:00 +32°C° 0 mm 2 mps 752 mmHg 27%
    16:00 +31°C° 0 mm 2 mps 752 mmHg 30%
    17:00 +30°C° 0 mm 1 mps 752 mmHg 33%
    18:00 +28°C° 0 mm 1 mps 752 mmHg 35%
    19:00 +27°C° 0 mm 1 mps 753 mmHg 37%
    20:00 +26°C° 0 mm 1 mps 753 mmHg 39%
    21:00 +25°C° 0 mm 2 mps 754 mmHg 41%
    22:00 +24°C° 0 mm 2 mps 754 mmHg 43%
    23:00 +24°C° 0 mm 2 mps 754 mmHg 45%
    Show more